Wetterdaten: aktuell Mittwoch, 06.05.2026 07:27
Datum Zeit Temp. A. Feuchte A. Luftdruck Regen Wind Richtung Richtung Taupunkt Windchill
06.05.2026 07:27 13,8 °C 85 % 998,2 hPa 0,0 l/m² 4,4 km/h (1 Bft) SO±45° 140 ° 11,3 °C 13,8 °C
06.05.2026 07:25 13,8 °C 86 % 998,2 hPa 0,0 l/m² 4,4 km/h (1 Bft) SO±45° 140 ° 11,5 °C 13,8 °C
06.05.2026 07:23 13,8 °C 86 % 998,2 hPa 0,0 l/m² 6,4 km/h (2 Bft) SO 125 ° 11,5 °C 13,8 °C
06.05.2026 07:21 13,7 °C 86 % 998,2 hPa 0,0 l/m² 3,2 km/h (1 Bft) SO 130 ° 11,4 °C 13,7 °C
06.05.2026 07:19 13,7 °C 86 % 998,2 hPa 0,0 l/m² 0,4 km/h (0 Bft) SO 130 ° 11,4 °C 13,7 °C
06.05.2026 07:17 13,7 °C 86 % 998,2 hPa 0,0 l/m² 0,4 km/h (0 Bft) SO 130 ° 11,4 °C 13,7 °C
06.05.2026 07:15 13,7 °C 86 % 998,2 hPa 0,0 l/m² 0,1 km/h (0 Bft) SO 135 ° 11,4 °C 13,7 °C
06.05.2026 07:13 13,7 °C 86 % 998,2 hPa 0,0 l/m² 1,0 km/h (0 Bft) SO 135 ° 11,4 °C 13,7 °C
06.05.2026 07:11 13,7 °C 86 % 998,2 hPa 0,0 l/m² 1,2 km/h (1 Bft) SO 135 ° 11,4 °C 13,7 °C
06.05.2026 07:08 13,7 °C 86 % 998,2 hPa 0,0 l/m² 1,2 km/h (1 Bft) SO 135 ° 11,4 °C 13,7 °C
06.05.2026 07:06 13,7 °C 86 % 998,2 hPa 0,0 l/m² 0,6 km/h (0 Bft) SO 140 ° 11,4 °C 13,7 °C
06.05.2026 07:05 13,7 °C 86 % 998,2 hPa 0,0 l/m² 5,9 km/h (2 Bft) SO±22.5° 140 ° 11,4 °C 13,7 °C
06.05.2026 07:03 13,6 °C 86 % 998,2 hPa 0,0 l/m² 5,9 km/h (2 Bft) SO±22.5° 140 ° 11,3 °C 13,6 °C
06.05.2026 07:01 13,6 °C 86 % 998,2 hPa 0,0 l/m² 2,7 km/h (1 Bft) O-SO±22.5° 120 ° 11,3 °C 13,6 °C
06.05.2026 06:59 13,5 °C 86 % 998,2 hPa 0,0 l/m² 4,6 km/h (1 Bft) SO±22.5° 140 ° 11,2 °C 13,5 °C
06.05.2026 06:57 13,5 °C 86 % 998,2 hPa 0,0 l/m² 5,0 km/h (1 Bft) SO±22.5° 135 ° 11,2 °C 13,5 °C
06.05.2026 06:55 13,5 °C 86 % 998,2 hPa 0,0 l/m² 5,0 km/h (1 Bft) SO±22.5° 135 ° 11,2 °C 13,5 °C
06.05.2026 06:53 13,5 °C 86 % 998,2 hPa 0,0 l/m² 2,5 km/h (1 Bft) SO 135 ° 11,2 °C 13,5 °C
06.05.2026 06:51 13,5 °C 86 % 998,2 hPa 0,0 l/m² 5,7 km/h (1 Bft) SO±22.5° 145 ° 11,2 °C 13,5 °C
06.05.2026 06:49 13,5 °C 86 % 998,2 hPa 0,0 l/m² 1,3 km/h (1 Bft) SO 125 ° 11,2 °C 13,5 °C
06.05.2026 06:47 13,4 °C 86 % 998,2 hPa 0,0 l/m² 1,3 km/h (1 Bft) SO 125 ° 11,1 °C 13,4 °C
06.05.2026 06:45 13,4 °C 86 % 998,2 hPa 0,0 l/m² 0,7 km/h (0 Bft) SO 125 ° 11,1 °C 13,4 °C
06.05.2026 06:43 13,4 °C 86 % 998,2 hPa 0,0 l/m² 5,7 km/h (1 Bft) S-SO±22.5° 150 ° 11,1 °C 13,4 °C
06.05.2026 06:41 13,3 °C 85 % 998,2 hPa 0,0 l/m² 5,7 km/h (1 Bft) S-SO±22.5° 150 ° 10,8 °C 13,3 °C
06.05.2026 06:39 13,3 °C 85 % 998,2 hPa 0,0 l/m² 0,6 km/h (0 Bft) S-SO 155 ° 10,8 °C 13,3 °C
06.05.2026 06:37 13,3 °C 85 % 998,2 hPa 0,0 l/m² 3,4 km/h (1 Bft) SO±22.5° 140 ° 10,8 °C 13,3 °C
06.05.2026 06:35 13,3 °C 85 % 998,2 hPa 0,0 l/m² 0,2 km/h (0 Bft) O-SO 115 ° 10,8 °C 13,3 °C
06.05.2026 06:33 13,3 °C 85 % 998,2 hPa 0,0 l/m² 0,2 km/h (0 Bft) O-SO 115 ° 10,8 °C 13,3 °C
06.05.2026 06:31 13,3 °C 85 % 998,2 hPa 0,0 l/m² 0,1 km/h (0 Bft) O-SO 115 ° 10,8 °C 13,3 °C
06.05.2026 06:28 13,3 °C 85 % 998,2 hPa 0,0 l/m² 0,1 km/h (0 Bft) O-SO 115 ° 10,8 °C 13,3 °C
06.05.2026 06:26 13,3 °C 85 % 998,2 hPa 0,0 l/m² 0,1 km/h (0 Bft) O-SO 115 ° 10,8 °C 13,3 °C
06.05.2026 06:24 13,3 °C 85 % 998,2 hPa 0,0 l/m² 0,0 km/h (0 Bft) O-SO 115 ° 10,8 °C 13,3 °C
06.05.2026 06:23 13,3 °C 85 % 998,2 hPa 0,0 l/m² 4,5 km/h (1 Bft) SO±22.5° 125 ° 10,8 °C 13,3 °C
06.05.2026 06:21 13,3 °C 85 % 998,2 hPa 0,0 l/m² 4,5 km/h (1 Bft) SO±22.5° 125 ° 10,8 °C 13,3 °C
06.05.2026 06:19 13,3 °C 85 % 998,2 hPa 0,0 l/m² 4,5 km/h (1 Bft) SO±22.5° 125 ° 10,8 °C 13,3 °C
06.05.2026 06:17 13,3 °C 85 % 998,2 hPa 0,0 l/m² 1,3 km/h (1 Bft) SO±22.5° 130 ° 10,8 °C 13,3 °C
06.05.2026 06:15 13,4 °C 84 % 998,2 hPa 0,0 l/m² 2,7 km/h (1 Bft) SO 130 ° 10,8 °C 13,4 °C
06.05.2026 06:13 13,4 °C 84 % 998,2 hPa 0,0 l/m² 0,3 km/h (0 Bft) O-SO 120 ° 10,8 °C 13,4 °C
06.05.2026 06:11 13,4 °C 84 % 998,2 hPa 0,0 l/m² 0,3 km/h (0 Bft) O-SO 120 ° 10,8 °C 13,4 °C
06.05.2026 06:09 13,4 °C 84 % 998,2 hPa 0,0 l/m² 0,3 km/h (0 Bft) O-SO 120 ° 10,8 °C 13,4 °C
06.05.2026 06:07 13,5 °C 84 % 998,2 hPa 0,0 l/m² 0,2 km/h (0 Bft) O-SO 120 ° 10,8 °C 13,5 °C
_ Min-Zeit 06:17 00:03 02:55 - 00:00 - - 06:09 06:17
Minimum _ 13,3 °C 82 % 998,1 hPa - 0,0 km/h (0 Bft) - - 10,8 °C 13,3 °C
_ Max-Zeit 00:00 02:14 03:29 00:45 01:17 - - 00:00 00:00
Maximum _ 15,4 °C 86 % 999,1 hPa 0,4 l/m² 6,7 km/h
SO (2 Bft)
- - 12,5 °C 15,4 °C
Durchschnitt _ 14,3 °C 85 % 998,6 hPa #2,9 l/m² 1,3 km/h (1 Bft) SO - 11,7 °C 14,3 °C